DECAYED

CZ-6A DEB, 54934 (Decayed)

Orbit data source: Space-Track

CZ-6A DEB, 54934 was space debris in SSO originally from a launch on Fri, 11 Nov 2022 UTC launched from the Taiyaun Space Center, China (TSC). Debris objects in space refer to the collection of defunct objects orbiting the Earth. Examples of debris include non-operational satellites, rocket bodies, and fragments generated from explosions, collisions, or faulty payload assembly.

Not visible in the next 10 days
Identifier
54934, 2022-151RX
Orbit
Decayed
Country
Flag of CNCN / PRC
Related business
Manufacturer
SAST
Mission
Decayed spacecraft
Bus & Motor
Unknown
Mass
Unknown
Launch date (UTC)
2022-11-11 (4 years ago)
Launch vehicle
Unknown
Launch site
Taiyaun Space Center, China (TSC)
Object type
Payload
Rocket body
Debris
Shape & HBR
Unknown shape, 0.1 m
Radar Cross Section
Medium (>0.1 m² and <1 m²)

Expand to show TLE details & history
Last TLE update: 2 years ago

TLE from 2 years ago
0 CZ-6A DEB
1 54934U 22151RX  25077.78855869  .05383990  00000-0  36853-1 0  9996
2 54934  99.1017 187.1068 0030290 284.5654  75.2244 15.70193578 52820
Epoch: 2025-03-18T18:55Z
TLE epoch observation values (Epoch: 2025-03-18T18:55:31.470Z)
Latitude
-0.00004°
Longitude
86.63967°
Altitude
356.299 km
Speed
7.698 km/s
True Right ascension
12h 28m 25s
True Declination
0° 00' 00"
Sunlit
Object was in full shadow at epoch
Visualization orbit readout
Latitude
Unknown
Longitude
Unknown
Altitude
Unknown
Speed
Unknown
Apparent Right ascension
Unknown
Apparent Declination
Unknown
Sunlit
N/A
Visualization observer readout
Local Sidereal Time
18:17:28
Azimuth
Unknown
Elevation
Unknown
Doppler factor
Unknown
Orbital elements
Apogee altitude
375.721 km
Perigee altitude
334.929 km
Semi-major axis
6,733.462 km
Eccentricity
0.00303
Inclination
99.1017°
RAAN
187.1068°
Arg. of periapsis
284.5654°
True anomaly
75.56034°
Mean anomaly
75.2244°
Eccentric anomaly
75.39234°
Mean motion
3.92813 °/min
Orbital period
91.65 mins
BSTAR
0.036853
Loading maneuver chart data...
Computing Atmospheric mass density...

Documentation

Showing up to 5 results
|